Weather History for KPQN - October, 2012

Change the Weather History Date:

Wednesday, October 31, 2012

  Actual Average Record
Temperature  
Mean Temperature 44 °F -  
Max Temperature 57 °F 47 °F 71 °F (2000)
Min Temperature 30 °F 30 °F 15 °F (1996)
Degree Days  
Heating Degree Days 22    
Moisture  
Dew Point 29 °F    
Average Humidity 62    
Maximum Humidity 87    
Minimum Humidity 38    
Precipitation  
Precipitation 0.00 in - - ()
Sea Level Pressure  
Sea Level Pressure 30.00 in    
Wind  
Wind Speed 4 mph (SW)    
Max Wind Speed 9 mph    
Max Gust Speed -    
Visibility 10 miles    
Events      
Averages and records for this station are not official NWS values.
T = Trace of Precipitation, MM = Missing Value Source: NWS Daily Summary

Daily Weather History Graph

Daily Weather History Graph

Search for Another Location

Airport or City:

Trip Planner

Search our weather history database for the weather conditions in past years. The results will help you decide how hot, cold, wet, or windy it might be!

Date:

Astronomy

Oct. 31, 2012 Rise Set
Actual Time 8:00 AM CDT 6:15 PM CDT
Civil Twilight 7:30 AM CDT 6:45 PM CDT
Nautical Twilight 6:56 AM CDT 7:19 PM CDT
Astronomical Twilight 6:23 AM CDT 7:53 PM CDT
Moon 7:23 PM CDT (10/31) 9:46 AM CDT (10/31)
Length of Visible Light 11h 15m
Length of Day
10h 14m
Full, 97% of the Moon is Illuminated
Oct 31
Full
Nov 6
Last Quarter
Nov 13
New
Nov 20
First Quarter
Nov 28
Full

Hourly Weather History & Observations

Time (CDT) Temp. Windchill Dew Point Humidity Pressure Visibility Wind Dir Wind Speed Gust Speed Precip Events Conditions
12:33 AM 35.6 °F 31.7 °F 28.4 °F 75% 30.05 in 10.0 mi ESE 4.6 mph - N/A   Scattered Clouds
12:54 AM 35.6 °F - 26.6 °F 70% 30.05 in 10.0 mi Calm Calm - N/A   Clear
1:13 AM 33.8 °F 30.8 °F 26.6 °F 75% 30.05 in 10.0 mi ESE 3.5 mph - N/A   Clear
1:33 AM 33.8 °F 30.8 °F 26.6 °F 75% 30.04 in 10.0 mi ESE 3.5 mph - N/A   Clear
1:53 AM 33.8 °F 30.8 °F 26.6 °F 75% 30.04 in 10.0 mi ESE 3.5 mph - N/A   Clear
2:13 AM 33.8 °F 29.6 °F 26.6 °F 75% 30.04 in 10.0 mi ESE 4.6 mph - N/A   Clear
2:33 AM 33.8 °F 27.7 °F 26.6 °F 75% 30.04 in 10.0 mi SE 6.9 mph - N/A   Clear
2:53 AM 33.8 °F 28.6 °F 26.6 °F 75% 30.04 in 10.0 mi ESE 5.8 mph - N/A   Clear
3:13 AM 33.8 °F 27.7 °F 26.6 °F 75% 30.04 in 10.0 mi ESE 6.9 mph - N/A   Clear
3:33 AM 33.8 °F 27.7 °F 26.6 °F 75% 30.04 in 10.0 mi ESE 6.9 mph - N/A   Clear
3:53 AM 33.8 °F 30.8 °F 26.6 °F 75% 30.04 in 10.0 mi East 3.5 mph - N/A   Mostly Cloudy
4:13 AM 33.8 °F 29.6 °F 28.4 °F 81% 30.04 in 10.0 mi ESE 4.6 mph - N/A   Scattered Clouds
4:33 AM 33.8 °F - 28.4 °F 81% 30.03 in 10.0 mi Calm Calm - N/A   Scattered Clouds
4:53 AM 33.8 °F 30.8 °F 28.4 °F 81% 30.03 in 10.0 mi SE 3.5 mph - N/A   Overcast
5:13 AM 33.8 °F 30.8 °F 28.4 °F 81% 30.03 in 10.0 mi ESE 3.5 mph - N/A   Overcast
5:33 AM 33.8 °F 30.8 °F 28.4 °F 81% 30.03 in 10.0 mi SE 3.5 mph - N/A   Mostly Cloudy
5:53 AM 32.0 °F 28.7 °F 28.4 °F 87% 30.03 in 10.0 mi SE 3.5 mph - N/A   Scattered Clouds
6:13 AM 30.2 °F - 26.6 °F 86% 30.03 in 10.0 mi Calm Calm - N/A   Clear
6:33 AM 32.0 °F - 26.6 °F 80% 30.03 in 10.0 mi Calm Calm - N/A   Clear
6:53 AM 32.0 °F - 24.8 °F 75% 30.03 in 10.0 mi Calm Calm - N/A   Clear
7:13 AM 30.2 °F - 24.8 °F 80% 30.03 in 10.0 mi Calm Calm - N/A   Clear
7:32 AM 32.0 °F 28.7 °F 21.2 °F 64% 30.02 in 10.0 mi South 3.5 mph - N/A   Clear
7:53 AM 30.2 °F - 21.2 °F 69% 30.02 in 10.0 mi Calm Calm - N/A   Clear
8:13 AM 30.2 °F - 21.2 °F 69% 30.02 in 10.0 mi Calm Calm - N/A   Clear
8:33 AM 30.2 °F - 23.0 °F 75% 30.02 in 10.0 mi Calm Calm - N/A   Clear
8:53 AM 30.2 °F - 23.0 °F 75% 30.02 in 10.0 mi Calm Calm - N/A   Clear
9:13 AM 33.8 °F - 24.8 °F 70% 30.03 in 10.0 mi Calm Calm - N/A   Clear
9:33 AM 35.6 °F - 21.2 °F 56% 30.03 in 10.0 mi Calm Calm - N/A   Clear
9:54 AM 37.4 °F 33.8 °F 21.2 °F 52% 30.03 in 10.0 mi SW 4.6 mph - N/A   Clear
10:13 AM 39.2 °F 35.9 °F 24.8 °F 56% 30.02 in 10.0 mi WSW 4.6 mph - N/A   Clear
10:33 AM 42.8 °F 39.3 °F 24.8 °F 49% 30.03 in 10.0 mi WSW 5.8 mph - N/A   Clear
10:53 AM 44.6 °F 40.7 °F 26.6 °F 49% 30.02 in 10.0 mi WSW 6.9 mph - N/A   Clear
11:18 AM 44.6 °F 40.7 °F 24.8 °F 46% 30.01 in 10.0 mi WSW 6.9 mph - N/A   Clear
11:33 AM 46.4 °F 42.9 °F 24.8 °F 43% 30.01 in 10.0 mi WSW 6.9 mph - N/A   Clear
11:53 AM 46.4 °F 42.9 °F 26.6 °F 46% 30.02 in 10.0 mi WSW 6.9 mph - N/A   Clear
12:13 PM 48.2 °F - 26.6 °F 43% 30.02 in 10.0 mi WSW 4.6 mph - N/A   Clear
12:33 PM 48.2 °F - 26.6 °F 43% 30.01 in 10.0 mi West 5.8 mph - N/A   Clear
12:53 PM 51.8 °F - 26.6 °F 38% 30.01 in 10.0 mi WSW 6.9 mph - N/A   Clear
1:33 PM 51.8 °F - 28.4 °F 41% 29.99 in 10.0 mi WSW 5.8 mph - N/A   Clear
2:13 PM 53.6 °F - 30.2 °F 41% 29.97 in 10.0 mi WSW 8.1 mph - N/A   Clear
2:53 PM 55.4 °F - 30.2 °F 38% 29.96 in 10.0 mi WSW 6.9 mph - N/A   Clear
3:13 PM 55.4 °F - 30.2 °F 38% 29.96 in 10.0 mi West 8.1 mph - N/A   Clear
3:33 PM 57.2 °F - 32.0 °F 38% 29.96 in 10.0 mi West 6.9 mph - N/A   Clear
3:53 PM 57.2 °F - 33.8 °F 41% 29.96 in 10.0 mi West 9.2 mph - N/A   Clear
4:13 PM 57.2 °F - 33.8 °F 41% 29.96 in 10.0 mi West 9.2 mph - N/A   Clear
4:33 PM 57.2 °F - 33.8 °F 41% 29.95 in 10.0 mi West 8.1 mph - N/A   Clear
4:53 PM 57.2 °F - 33.8 °F 41% 29.95 in 10.0 mi West 8.1 mph - N/A   Clear
5:13 PM 57.2 °F - 33.8 °F 41% 29.95 in 10.0 mi West 5.8 mph - N/A   Clear
5:33 PM 55.4 °F - 33.8 °F 44% 29.95 in 10.0 mi West 5.8 mph - N/A   Clear
5:53 PM 53.6 °F - 35.6 °F 51% 29.95 in 10.0 mi WSW 4.6 mph - N/A   Clear
6:13 PM 51.8 °F - 33.8 °F 50% 29.95 in 10.0 mi WSW 3.5 mph - N/A   Clear
6:33 PM 48.2 °F - 35.6 °F 62% 29.95 in 10.0 mi Calm Calm - N/A   Clear
6:53 PM 50.0 °F - 33.8 °F 54% 29.96 in 10.0 mi Calm Calm - N/A   Clear
7:13 PM 46.4 °F - 33.8 °F 62% 29.96 in 10.0 mi Calm Calm - N/A   Clear
7:33 PM 46.4 °F - 33.8 °F 62% 29.96 in 10.0 mi Calm Calm - N/A   Clear
7:54 PM 46.4 °F - 33.8 °F 62% 29.96 in 10.0 mi Calm Calm - N/A   Clear
8:13 PM 46.4 °F - 33.8 °F 62% 29.96 in 10.0 mi Calm Calm - N/A   Clear
8:33 PM 46.4 °F 45.2 °F 33.8 °F 62% 29.95 in 10.0 mi West 3.5 mph - N/A   Clear
8:53 PM 44.6 °F - 33.8 °F 66% 29.95 in 10.0 mi Calm Calm - N/A   Clear
9:13 PM 44.6 °F 43.1 °F 33.8 °F 66% 29.95 in 10.0 mi WSW 3.5 mph - N/A   Scattered Clouds
9:33 PM 46.4 °F - 33.8 °F 62% 29.95 in 10.0 mi Calm Calm - N/A   Mostly Cloudy
9:53 PM 46.4 °F - 33.8 °F 62% 29.95 in 10.0 mi Calm Calm - N/A   Mostly Cloudy
10:13 PM 46.4 °F - 35.6 °F 66% 29.95 in 10.0 mi Calm Calm - N/A   Scattered Clouds
10:33 PM 46.4 °F - 35.6 °F 66% 29.95 in 10.0 mi Calm Calm - N/A   Clear
10:53 PM 44.6 °F - 33.8 °F 66% 29.95 in 10.0 mi Calm Calm - N/A   Clear
11:13 PM 44.6 °F - 33.8 °F 66% 29.95 in 10.0 mi Calm Calm - N/A   Scattered Clouds
11:33 PM 44.6 °F 43.1 °F 35.6 °F 71% 29.95 in 10.0 mi WNW 3.5 mph - N/A   Mostly Cloudy
11:53 PM 42.8 °F - 35.6 °F 76% 29.95 in 10.0 mi Calm Calm - N/A   Mostly Cloudy